Location: Peebles
(55.6412°N, 3.1714°W)
Time: 22:08:06
(UTC+00:00)

deb Agena D - Pass Details

Date: 30 September 2023
Orbit: 794 x 979 km, 99.8° (Epoch: 28 November)

Event Time Altitude Azimuth Distance (km) Brightness Sun altitude
Rises 04:23:35 0° 18° (NNE) 3,697 10.3 -23.5°
Reaches altitude 10° 04:27:19 10° 356° (N) 2,740 9.2 -23.1°
Maximum altitude 04:30:19 14° 326° (NW) 2,430 8.5 -22.7°
Enters shadow 04:32:27 12° 304° (NW) 2,572 8.5 -22.5°
